Home   Weather   Arden-Arcade   Past weeks

Flag for USA Past Weather in Arden-Arcade, California, USA — Yesterday and Last 2 Weeks

59 °F

Light rain. Low clouds.

Feels Like: 58 °F
Forecast: 58 / 71 °F
Wind: 7 mph from Southeast

Location: Mather Field

Current Time: Oct 25, 2016 at 5:06:38 AM

Latest Report: Oct 25, 2016 at 3:45 AM

Visibility: 7 mi

Pressure: 30.01 "Hg

Humidity: 88%

Dew Point: 55 °F

Location of Arden-ArcadeLocation

Past Weather in Arden-Arcade — Graph


Arden-Arcade Temperature Yesterday

Maximum temperature yesterday: 68 °F (at 1:45 PM)
Minimum temperature yesterday: 57 °F (at 5:45 AM)
Average temperature yesterday: 63 °F

High & Low Weather Summary for the Past Weeks

High84 °F (Oct 10, 11:45 AM)100% (Oct 12, 6:45 AM)30.21 "Hg (Oct 12, 6:45 AM)
Low45 °F (Oct 12, 4:45 AM)19% (Oct 10, 3:45 PM)28.98 "Hg (Oct 23, 5:45 AM)
Average61 °F70%29.98 "Hg
* Reported Oct 10 4:50 AM — Oct 25 3:45 AM, Arden-Arcade, Weather by CustomWeather, © 2016

Note: Actual official high and low records may vary slightly from our data, if they occured in-between our weather recording intervals... More about our weather records


Arden-Arcade Weather History for the Previous 24 Hours

Scroll right to see more
Time TempWeatherWind HumidityBarometerVisibility
3:45 AM
Tue, Oct 25
59 °FLight rain. Low clouds.7 mph88%30.01 "Hg7 mi
2:45 AM61 °FLight rain. Overcast.8 mph83%30.01 "Hg7 mi
10:50 PM
Mon, Oct 24
59 °FLight rain. Overcast.6 mph94%30.00 "Hg10 mi
9:55 PM59 °FOvercast.6 mph88%29.99 "Hg10 mi
8:45 PM59 °FMostly cloudy.6 mph88%29.98 "Hg10 mi
7:45 PM64 °FMostly cloudy.5 mph68%29.97 "Hg10 mi
6:45 PM63 °FOvercast.6 mph73%29.95 "Hg10 mi
5:55 PM66 °FMore clouds than sun.8 mph56%29.95 "Hg10 mi
4:50 PM68 °FMore clouds than sun.10 mph53%29.95 "Hg10 mi
3:45 PM68 °FOvercast.10 mph56%29.95 "Hg10 mi
2:45 PM68 °FPassing clouds.13 mph56%29.94 "Hg10 mi
1:45 PM68 °FPassing clouds.13 mph60%29.95 "Hg10 mi
12:45 PM66 °FPassing clouds.10 mph64%29.98 "Hg10 mi
11:45 AM66 °FPassing clouds.12 mph60%29.99 "Hg10 mi
10:45 AM66 °FPassing clouds.8 mph64%29.98 "Hg10 mi
9:45 AM64 °FPassing clouds.5 mph68%29.97 "Hg10 mi
8:45 AM59 °FPassing clouds.6 mph82%29.95 "Hg10 mi
7:45 AM57 °FPassing clouds.5 mph88%29.93 "Hg10 mi
6:45 AM57 °FOvercast.7 mph88%29.94 "Hg10 mi
5:45 AM57 °FOvercast.6 mph88%29.95 "Hg10 mi
Weather by CustomWeather, © 2016

See weather overviewHow to use our weather pages